When you browse on this site, cookies collect data to enhance your experience and personalize the content and advertising you see.
Visit our Privacy Policy to learn more. By continuing to use the site, you agree to this use of cookies and data.
  • Em Portugal
  • Lista de países
  • Para 7 dias
  • Temperatura da água
  • Mapas de satélite
  • Mapa do tempo
  • Widgets de tempo
  • user-avatar
    Iniciar Sessão

    Previsão horária em Robertsport

    Hoje, 18 Novembro, Domingo

    Tempo Temperatura Precipitação Vento Pressão Humidade
    00:00 +24°C° 0 mm 0 m/s 756 mmHg 94%
    01:00 +24°C° 0 mm 0 m/s 755 mmHg 94%
    02:00 +24°C° 0 mm 0 m/s 755 mmHg 94%
    03:00 +23°C° 0 mm 0 m/s 755 mmHg 94%
    04:00 +23°C° 0 mm 0 m/s 755 mmHg 95%
    05:00 +23°C° 0 mm 0 m/s 755 mmHg 95%
    06:00 +24°C° 0 mm 0 m/s 755 mmHg 91%
    07:00 +26°C° 0 mm 0 m/s 756 mmHg 87%
    08:00 +29°C° 0 mm 1 m/s 756 mmHg 83%
    09:00 +31°C° 0 mm 1 m/s 756 mmHg 73%
    10:00 +33°C° 0 mm 1 m/s 756 mmHg 63%
    11:00 +34°C° 0 mm 0 m/s 755 mmHg 53%
    12:00 +35°C° 0.5 mm 1 m/s 755 mmHg 57%
    13:00 +35°C° 0.5 mm 2 m/s 754 mmHg 61%
    14:00 +34°C° 0.5 mm 3 m/s 753 mmHg 65%
    15:00 +32°C° 0.9 mm 2 m/s 753 mmHg 72%
    16:00 +30°C° 0.9 mm 2 m/s 754 mmHg 79%
    17:00 +29°C° 0.9 mm 2 m/s 754 mmHg 86%
    18:00 +28°C° 0.8 mm 2 m/s 754 mmHg 88%
    19:00 +27°C° 0.8 mm 2 m/s 755 mmHg 91%
    20:00 +27°C° 0.8 mm 2 m/s 756 mmHg 93%
    21:00 +27°C° 0.7 mm 2 m/s 756 mmHg 93%
    22:00 +27°C° 0.7 mm 2 m/s 756 mmHg 93%
    23:00 +26°C° 0.7 mm 2 m/s 756 mmHg 92%

    Amanhã, 19 Novembro, Segunda-feira

    Tempo Temperatura Precipitação Vento Pressão Humidade
    00:00 +26°C° 0.2 mm 2 m/s 755 mmHg 93%
    01:00 +26°C° 0.2 mm 2 m/s 755 mmHg 93%
    02:00 +26°C° 0.2 mm 2 m/s 755 mmHg 94%
    03:00 +26°C° 0.6 mm 2 m/s 755 mmHg 94%
    04:00 +26°C° 0.6 mm 2 m/s 754 mmHg 95%
    05:00 +25°C° 0.6 mm 1 m/s 754 mmHg 95%
    06:00 +26°C° 0.7 mm 1 m/s 755 mmHg 92%
    07:00 +27°C° 0.7 mm 1 m/s 755 mmHg 88%
    08:00 +28°C° 0.7 mm 1 m/s 756 mmHg 84%
    09:00 +30°C° 0.6 mm 1 m/s 756 mmHg 78%
    10:00 +29°C° 0.6 mm 0 m/s 756 mmHg 73%
    11:00 +30°C° 0.6 mm 0 m/s 756 mmHg 67%
    12:00 +32°C° 0.4 mm 1 m/s 755 mmHg 68%
    13:00 +32°C° 0.4 mm 1 m/s 754 mmHg 68%
    14:00 +32°C° 0.4 mm 1 m/s 753 mmHg 68%
    15:00 +31°C° 0.2 mm 1 m/s 754 mmHg 72%
    16:00 +30°C° 0.2 mm 1 m/s 754 mmHg 76%
    17:00 +29°C° 0.2 mm 1 m/s 754 mmHg 81%
    18:00 +28°C° 0.1 mm 1 m/s 754 mmHg 83%
    19:00 +28°C° 0.1 mm 1 m/s 755 mmHg 86%
    20:00 +27°C° 0.1 mm 1 m/s 756 mmHg 89%
    21:00 +27°C° 0 mm 1 m/s 756 mmHg 90%
    22:00 +27°C° 0 mm 1 m/s 756 mmHg 90%
    23:00 +26°C° 0 mm 1 m/s 756 mmHg 91%

    Depois de amanhã, 20 Novembro, Terça-feira

    Tempo Temperatura Precipitação Vento Pressão Humidade
    00:00 +26°C° 0 mm 1 m/s 755 mmHg 91%
    01:00 +24°C° 0 mm 0 m/s 755 mmHg 92%
    02:00 +24°C° 0 mm 0 m/s 754 mmHg 93%
    03:00 +24°C° 0 mm 0 m/s 754 mmHg 93%
    04:00 +23°C° 0 mm 0 m/s 754 mmHg 93%
    05:00 +23°C° 0 mm 0 m/s 754 mmHg 94%
    06:00 +26°C° 0 mm 1 m/s 755 mmHg 90%
    07:00 +27°C° 0 mm 1 m/s 756 mmHg 87%
    08:00 +28°C° 0 mm 1 m/s 756 mmHg 84%
    09:00 +30°C° 0 mm 1 m/s 756 mmHg 73%
    10:00 +32°C° 0 mm 1 m/s 756 mmHg 63%
    11:00 +34°C° 0 mm 1 m/s 756 mmHg 52%
    12:00 +34°C° 0 mm 1 m/s 755 mmHg 51%
    13:00 +35°C° 0 mm 1 m/s 754 mmHg 49%
    14:00 +36°C° 0 mm 2 m/s 754 mmHg 47%
    15:00 +34°C° 0 mm 2 m/s 754 mmHg 55%
    16:00 +32°C° 0 mm 2 m/s 754 mmHg 63%
    17:00 +31°C° 0 mm 2 m/s 754 mmHg 71%
    18:00 +30°C° 0 mm 2 m/s 755 mmHg 75%
    19:00 +29°C° 0 mm 2 m/s 755 mmHg 80%
    20:00 +28°C° 0 mm 2 m/s 756 mmHg 84%
    21:00 +28°C° 0 mm 2 m/s 756 mmHg 85%
    22:00 +28°C° 0 mm 1 m/s 756 mmHg 85%
    23:00 +28°C° 0 mm 1 m/s 756 mmHg 86%

    21 Novembro, Quarta-feira

    Tempo Temperatura Precipitação Vento Pressão Humidade
    00:00 +27°C° 0 mm 1 m/s 755 mmHg 88%
    01:00 +27°C° 0 mm 1 m/s 755 mmHg 90%
    02:00 +27°C° 0 mm 1 m/s 754 mmHg 91%
    03:00 +27°C° 0 mm 1 m/s 755 mmHg 92%
    04:00 +26°C° 0 mm 1 m/s 755 mmHg 93%
    05:00 +26°C° 0 mm 1 m/s 755 mmHg 94%
    06:00 +27°C° 0.5 mm 1 m/s 756 mmHg 90%
    07:00 +28°C° 0.5 mm 1 m/s 756 mmHg 86%
    08:00 +28°C° 0.5 mm 0 m/s 757 mmHg 83%
    09:00 +31°C° 0 mm 1 m/s 756 mmHg 74%
    10:00 +33°C° 0 mm 1 m/s 756 mmHg 66%
    11:00 +35°C° 0 mm 1 m/s 756 mmHg 58%
    12:00 +35°C° 0.1 mm 2 m/s 755 mmHg 62%
    13:00 +34°C° 0.1 mm 2 m/s 754 mmHg 67%
    14:00 +33°C° 0.1 mm 3 m/s 754 mmHg 72%
    15:00 +30°C° 0.7 mm 3 m/s 754 mmHg 77%
    16:00 +29°C° 0.7 mm 3 m/s 754 mmHg 83%
    17:00 +28°C° 0.7 mm 3 m/s 754 mmHg 88%
    18:00 +28°C° 0.6 mm 3 m/s 755 mmHg 90%
    19:00 +27°C° 0.6 mm 3 m/s 755 mmHg 91%
    20:00 +27°C° 0.6 mm 2 m/s 756 mmHg 92%
    21:00 +27°C° 0.4 mm 2 m/s 756 mmHg 93%
    22:00 +27°C° 0.4 mm 2 m/s 756 mmHg 93%
    23:00 +26°C° 0.4 mm 2 m/s 756 mmHg 93%

    22 Novembro, Quinta-feira

    Tempo Temperatura Precipitação Vento Pressão Humidade
    00:00 +26°C° 0.2 mm 2 m/s 755 mmHg 93%
    01:00 +26°C° 0.2 mm 1 m/s 754 mmHg 93%
    02:00 +26°C° 0.2 mm 1 m/s 754 mmHg 94%
    03:00 +26°C° 0 mm 1 m/s 754 mmHg 94%
    04:00 +26°C° 0 mm 1 m/s 755 mmHg 94%
    05:00 +26°C° 0 mm 1 m/s 755 mmHg 95%
    06:00 +27°C° 0.7 mm 1 m/s 755 mmHg 90%
    07:00 +29°C° 0.7 mm 1 m/s 756 mmHg 85%
    08:00 +30°C° 0.7 mm 1 m/s 757 mmHg 80%
    09:00 +31°C° 0.1 mm 1 m/s 756 mmHg 73%
    10:00 +33°C° 0.1 mm 1 m/s 756 mmHg 67%
    11:00 +35°C° 0.1 mm 2 m/s 756 mmHg 60%
    12:00 +34°C° 0.3 mm 2 m/s 755 mmHg 64%
    13:00 +34°C° 0.3 mm 2 m/s 754 mmHg 67%
    14:00 +32°C° 0.3 mm 2 m/s 753 mmHg 70%
    15:00 +31°C° 0.1 mm 2 m/s 753 mmHg 74%
    16:00 +30°C° 0.1 mm 2 m/s 754 mmHg 78%
    17:00 +29°C° 0.1 mm 2 m/s 754 mmHg 82%
    18:00 +29°C° 0 mm 2 m/s 754 mmHg 85%
    19:00 +28°C° 0 mm 2 m/s 755 mmHg 88%
    20:00 +27°C° 0 mm 2 m/s 755 mmHg 90%
    21:00 +27°C° 0 mm 2 m/s 755 mmHg 91%
    22:00 +27°C° 0 mm 2 m/s 755 mmHg 92%
    23:00 +27°C° 0 mm 2 m/s 755 mmHg 92%

    23 Novembro, Sexta-feira

    Tempo Temperatura Precipitação Vento Pressão Humidade
    00:00 +27°C° 0 mm 1 m/s 754 mmHg 92%
    01:00 +26°C° 0 mm 1 m/s 754 mmHg 93%
    02:00 +26°C° 0 mm 1 m/s 754 mmHg 93%
    03:00 +26°C° 0 mm 1 m/s 754 mmHg 93%
    04:00 +26°C° 0 mm 1 m/s 754 mmHg 93%
    05:00 +24°C° 0 mm 0 m/s 755 mmHg 94%
    06:00 +25°C° 0.1 mm 0 m/s 755 mmHg 89%
    07:00 +27°C° 0.1 mm 0 m/s 756 mmHg 84%
    08:00 +28°C° 0.1 mm 0 m/s 756 mmHg 80%
    09:00 +31°C° 0.1 mm 1 m/s 756 mmHg 73%
    10:00 +33°C° 0.1 mm 1 m/s 756 mmHg 67%
    11:00 +34°C° 0.1 mm 1 m/s 755 mmHg 60%
    12:00 +34°C° 0 mm 1 m/s 754 mmHg 60%
    13:00 +35°C° 0 mm 2 m/s 754 mmHg 60%
    14:00 +34°C° 0 mm 2 m/s 753 mmHg 61%
    15:00 +32°C° 0 mm 2 m/s 753 mmHg 66%
    16:00 +31°C° 0 mm 2 m/s 753 mmHg 71%
    17:00 +30°C° 0 mm 2 m/s 753 mmHg 76%
    18:00 +29°C° 0 mm 2 m/s 754 mmHg 80%
    19:00 +28°C° 0 mm 2 m/s 754 mmHg 85%
    20:00 +28°C° 0 mm 2 m/s 755 mmHg 90%
    21:00 +27°C° 0 mm 2 m/s 754 mmHg 91%
    22:00 +27°C° 0 mm 2 m/s 754 mmHg 91%
    23:00 +27°C° 0 mm 2 m/s 754 mmHg 92%
    Mostrar mais